Green Bay, WI

11:51 PM CDT on July 27, 2017 (GMT -0500)
Austin Straubel International

Weather History for KGRB - March, 2014

Change the Weather History Date:

Wednesday, March 19, 2014

  Actual Average Record
Temperature  
Mean Temperature 35 °F 32 °F  
Max Temperature 39 °F 40 °F 77 °F (2012)
Min Temperature 31 °F 24 °F -5 °F (1989)
Degree Days  
Heating Degree Days 30 33  
Month to date heating degree days 869 697  
Since 1 July heating degree days 7350 6537  
Cooling Degree Days 0 0  
Month to date cooling degree days 0 0  
Year to date cooling degree days 0 0  
Moisture  
Dew Point 30 °F    
Average Humidity 85    
Maximum Humidity 100    
Minimum Humidity 69    
Precipitation  
Precipitation 0.20 in 0.06 in 1.87 in (1903)
Month to date precipitation 0.36 1.07  
Year to date precipitation 3.15 3.31  
Snow  
Snow 1.00 in 0.20 in 7.30 in (1933)
Month to date snowfall 3.9 5.8  
Since 1 July snowfall 66.2 46.0  
Snow Depth 6.00 in    
Sea Level Pressure  
Sea Level Pressure 29.71 in    
Wind  
Wind Speed 13 mph (North)    
Max Wind Speed 25 mph    
Max Gust Speed 32 mph    
Visibility 4 miles    
Events Rain , Snow    
T = Trace of Precipitation, MM = Missing Value Source: NWS Daily Summary

Daily Weather History Graph

Daily Weather History Graph

Search for Another Location

Airport or City:

Trip Planner

Search our weather history database for the weather conditions in past years. The results will help you decide how hot, cold, wet, or windy it might be!

Date:

Astronomy

Mar. 19, 2014 Rise Set
Actual Time 6:57 AM CDT 7:03 PM CDT
Civil Twilight 6:28 AM CDT 7:32 PM CDT
Nautical Twilight 5:54 AM CDT 8:06 PM CDT
Astronomical Twilight 5:19 AM CDT 8:41 PM CDT
Moon 10:30 PM CDT (3/19) 8:15 AM CDT (3/19)
Length of Visible Light 13h 04m
Length of Day
12h 06m
Waning Gibbous, 91% of the Moon is Illuminated
Mar 19
Waning Gibbous
Mar 23
Last Quarter
Mar 30
New
Apr 7
First Quarter
Apr 15
Full

Hourly Weather History & Observations

Time (CDT) Temp. Windchill Dew Point Humidity Pressure Visibility Wind Dir Wind Speed Gust Speed Precip Events Conditions
12:40 AM 33.1 °F 23.9 °F 30.0 °F 89% 29.77 in 2.0 mi NNE 12.7 mph - 0.00 in Snow Light Snow
12:53 AM 33.1 °F 24.4 °F 30.9 °F 92% 29.78 in 2.0 mi NE 11.5 mph - 0.01 in Snow Light Snow
1:13 AM 33.1 °F 24.4 °F 30.9 °F 92% 29.75 in 3.0 mi NE 11.5 mph - 0.00 in Snow Light Snow
1:25 AM 33.1 °F 24.9 °F 30.9 °F 92% 29.74 in 2.5 mi NE 10.4 mph - 0.01 in Snow Light Snow
1:39 AM 33.1 °F 23.9 °F 32.0 °F 96% 29.74 in 1.8 mi NE 12.7 mph - 0.01 in   Overcast
1:53 AM 33.1 °F 23.9 °F 32.0 °F 96% 29.75 in 1.5 mi NE 12.7 mph - 0.02 in   Overcast
2:06 AM 32.0 °F 23.0 °F 32.0 °F 100% 29.72 in 1.8 mi NE 11.5 mph - 0.00 in   Overcast
2:19 AM 33.1 °F 24.4 °F 32.0 °F 96% 29.71 in 1.2 mi NE 11.5 mph - 0.01 in Snow Light Snow
2:44 AM 33.1 °F 23.0 °F 32.0 °F 96% 29.69 in 1.2 mi NE 15.0 mph - 0.03 in Snow Light Snow
2:53 AM 33.1 °F 23.9 °F 32.0 °F 96% 29.71 in 1.2 mi NE 12.7 mph - 0.04 in Snow Light Snow
3:17 AM 33.1 °F 23.9 °F 32.0 °F 96% 29.67 in 2.0 mi NE 12.7 mph - 0.00 in   Overcast
3:31 AM 33.1 °F 24.4 °F 32.0 °F 96% 29.67 in 1.5 mi NNE 11.5 mph - 0.02 in Snow Light Snow
3:53 AM 33.1 °F 24.4 °F 32.0 °F 96% 29.69 in 1.0 mi NE 11.5 mph - 0.04 in Snow Light Snow
4:00 AM 33.1 °F 23.9 °F 32.0 °F 96% 29.66 in 0.8 mi NE 12.7 mph - 0.00 in Snow Light Snow
4:31 AM 32.0 °F 21.2 °F 32.0 °F 100% 29.64 in 0.8 mi NE 16.1 mph - 0.06 in Snow Light Snow
4:36 AM 32.0 °F 22.1 °F 32.0 °F 100% 29.64 in 1.0 mi NNE 13.8 mph - 0.06 in Snow Light Snow
4:53 AM 32.0 °F 22.1 °F 32.0 °F 100% 29.67 in 1.2 mi NNE 13.8 mph - 0.07 in Snow Light Snow
5:46 AM 32.0 °F 22.1 °F 30.9 °F 96% 29.63 in 2.5 mi NNE 13.8 mph - 0.02 in Snow Light Snow
5:53 AM 32.0 °F 22.1 °F 30.9 °F 96% 29.65 in 3.0 mi NNE 13.8 mph - 0.02 in   Overcast
6:05 AM 32.0 °F 22.5 °F 30.9 °F 96% 29.63 in 2.5 mi NNE 12.7 mph - 0.00 in Snow Light Snow
6:34 AM 32.0 °F 21.2 °F 30.9 °F 96% 29.63 in 3.0 mi NNE 16.1 mph - 0.00 in   Overcast
6:53 AM 32.0 °F 22.1 °F 30.0 °F 92% 29.65 in 3.0 mi NNE 13.8 mph - 0.00 in   Overcast
7:12 AM 30.9 °F 20.2 °F 30.0 °F 96% 29.63 in 2.0 mi NNE 15.0 mph - N/A   Overcast
7:39 AM 30.9 °F 22.2 °F 30.0 °F 96% 29.62 in 1.8 mi NNE 10.4 mph - N/A   Overcast
7:43 AM 30.9 °F 21.7 °F 30.0 °F 96% 29.62 in 2.0 mi NNE 11.5 mph - N/A   Overcast
7:53 AM 30.9 °F 21.7 °F 30.0 °F 96% 29.65 in 2.0 mi NNE 11.5 mph - N/A   Overcast
8:53 AM 32.0 °F 22.5 °F 30.9 °F 96% 29.65 in 2.5 mi North 12.7 mph - N/A   Overcast
9:53 AM 32.0 °F 22.5 °F 30.0 °F 92% 29.66 in 3.0 mi North 12.7 mph - N/A   Overcast
10:53 AM 32.0 °F 21.6 °F 28.9 °F 88% 29.67 in 6.0 mi North 15.0 mph 21.9 mph N/A   Overcast
11:09 AM 32.0 °F 23.0 °F 28.9 °F 88% 29.65 in 7.0 mi North 11.5 mph - N/A   Overcast
11:53 AM 33.1 °F 26.9 °F 28.0 °F 82% 29.68 in 8.0 mi NNW 6.9 mph - N/A   Overcast
12:53 PM 34.0 °F 26.0 °F 28.9 °F 82% 29.69 in 7.0 mi NW 10.4 mph - N/A   Overcast
1:09 PM 34.0 °F 26.6 °F 28.9 °F 82% 29.67 in 7.0 mi NW 9.2 mph - N/A   Overcast
1:53 PM 35.1 °F 29.3 °F 30.0 °F 82% 29.69 in 7.0 mi NW 6.9 mph - N/A   Overcast
2:53 PM 37.9 °F 30.5 °F 32.0 °F 79% 29.69 in 7.0 mi West 11.5 mph - N/A   Overcast
3:20 PM 37.9 °F 31.5 °F 32.0 °F 79% 29.67 in 6.0 mi West 9.2 mph - N/A   Haze
3:30 PM 37.9 °F 31.5 °F 32.0 °F 79% 29.67 in 7.0 mi West 9.2 mph - N/A   Mostly Cloudy
3:42 PM 37.9 °F 30.9 °F 32.0 °F 79% 29.68 in 7.0 mi West 10.4 mph - N/A   Overcast
3:53 PM 37.9 °F 30.5 °F 32.0 °F 79% 29.70 in 7.0 mi West 11.5 mph - N/A   Overcast
4:53 PM 39.0 °F 31.8 °F 30.9 °F 73% 29.73 in 10.0 mi West 11.5 mph - N/A   Overcast
5:53 PM 37.0 °F 27.7 °F 30.9 °F 79% 29.76 in 9.0 mi WNW 16.1 mph - 0.00 in Rain Light Rain
6:18 PM 36.0 °F 26.3 °F 32.0 °F 86% 29.75 in 8.0 mi West 16.1 mph - 0.00 in Rain Light Rain
6:34 PM 34.0 °F 24.6 °F 32.0 °F 92% 29.76 in 5.0 mi West 13.8 mph - 0.00 in Snow Light Snow
6:46 PM 34.0 °F 23.8 °F 32.0 °F 92% 29.77 in 4.0 mi WNW 16.1 mph - 0.01 in Snow Light Snow
6:53 PM 34.0 °F 25.0 °F 30.9 °F 89% 29.80 in 4.0 mi WNW 12.7 mph 21.9 mph 0.01 in Snow Light Snow
7:53 PM 34.0 °F 23.4 °F 28.9 °F 82% 29.83 in 6.0 mi WNW 17.3 mph - 0.00 in Snow Light Snow
8:53 PM 33.1 °F 22.2 °F 28.0 °F 82% 29.85 in 9.0 mi WNW 17.3 mph - 0.00 in   Overcast
9:33 PM 33.1 °F 21.5 °F 27.0 °F 78% 29.84 in 10.0 mi WNW 19.6 mph 26.5 mph N/A   Overcast
9:46 PM 33.1 °F 22.2 °F 25.0 °F 72% 29.84 in 10.0 mi WNW 17.3 mph 28.8 mph N/A   Overcast
9:53 PM 33.1 °F 22.6 °F 26.1 °F 75% 29.87 in 10.0 mi WNW 16.1 mph - N/A   Overcast
10:53 PM 33.1 °F 22.6 °F 25.0 °F 72% 29.88 in 10.0 mi WNW 16.1 mph 23.0 mph N/A   Overcast
11:53 PM 33.1 °F 23.9 °F 26.1 °F 75% 29.89 in 10.0 mi West 12.7 mph - N/A   Overcast